Weather in Priles'ye

Russia / Tula Oblast     53°50′40″N   38°08′23″E
temp.,
°C
wind,
m/s
gust,
m/s
humid.,
%
clouds,
%
prec.,
mm/h
press.,
hPa
HPBL,
m
17 june, thu
thu1700:00+14nne410890 0.0 1018189
03:00+13ne37890 0.0 1019132
06:00+14nne38870 0.0 1020218
09:00+18ne57630 0.0 1022494
12:00+21ne56550 0.0 10231212
15:00+21ne56550 0.0 10231392
18:00+21ne46680 0.0 10231088
21:00+16nne34850 0.0 102459
18 june, fri
fri1800:00+13ne49780 0.0 1026151
03:00+12ene35830 0.0 102680
06:00+14ene37830 0.0 1027194
09:00+18ene46670 0.0 1028563
12:00+21e45575 0.0 10271323
15:00+22e45560 0.0 10271450
18:00+21e34675 0.0 10261208
21:00+16se22835 0.0 102712
19 june, sat
sat1900:00+14ese228863 0.0 102813
03:00+13se22925 0.0 102816
06:00+15ese23870 0.0 1029106
09:00+19ese34680 0.0 1028536
12:00+22se44570 0.0 10271064
15:00+23se44550 0.0 10261149
18:00+22se23660 0.0 10251040
21:00+17se22860 0.0 102617
20 june, sun
sun2000:00+14sse22840 0.0 102614
03:00+13sse22870 0.0 102612
06:00+15se22840 0.0 102686
09:00+20se34690 0.0 1026476
12:00+23se34570 0.0 1025921
15:00+25sse335375 0.0 10231072
18:00+24se2364100 0.0 1022906
21:00+19se2277100 0.0 102311
21 june, mon
mon2100:00+17se2286100 0.0 102313
03:00+17ese2286100 0.0 102214
06:00+18se2485100 0.0 1023106
09:00+22ese347294 0.0 1022393
12:00+26ese346072 0.0 10221003
15:00+27ese335531 0.0 10211173
18:00+26ese346759 0.0 1021601
21:00+21e338317 0.0 102140